Seldovia, AK

1:55 PM AKST on February 19, 2017 (GMT -0900)
Seldovia

Weather History for PASO - December, 2012

Change the Weather History Date:

Thursday, December 20, 2012

  Actual Average (PAHO) Record (PAHO)
Temperature  
Mean Temperature 20 °F -  
Max Temperature 23 °F 31 °F 50 °F (1969)
Min Temperature 16 °F 22 °F -5 °F (1933)
Degree Days  
Heating Degree Days 45    
Moisture  
Dew Point 2 °F    
Average Humidity 45    
Maximum Humidity 57    
Minimum Humidity 35    
Precipitation  
Precipitation 0.00 in - - ()
Sea Level Pressure  
Sea Level Pressure 30.04 in    
Wind  
Wind Speed 12 mph (North)    
Max Wind Speed 20 mph    
Max Gust Speed 34 mph    
Visibility 10 miles    
Events      
Averages and records for this station are not official NWS values.
T = Trace of Precipitation, MM = Missing Value Source: NWS Daily Summary

Daily Weather History Graph

Daily Weather History Graph

Search for Another Location

Airport or City:

Trip Planner

Search our weather history database for the weather conditions in past years. The results will help you decide how hot, cold, wet, or windy it might be!

Date:

Astronomy

Dec. 20, 2012 Rise Set
Actual Time 10:03 AM AKST 4:06 PM AKST
Civil Twilight 9:07 AM AKST 5:02 PM AKST
Nautical Twilight 8:11 AM AKST 5:57 PM AKST
Astronomical Twilight 7:21 AM AKST 6:48 PM AKST
Moon 12:44 PM AKST (12/20) 1:38 AM AKST (12/20)
Length of Visible Light 7h 54m
Length of Day
6h 02m
First Quarter, 56% of the Moon is Illuminated
Dec 20
First Quarter
Dec 28
Full
Jan 4
Last Quarter
Jan 11
New
Jan 18
First Quarter

Hourly Weather History & Observations

Time (AKST) Temp. Windchill Dew Point Humidity Pressure Visibility Wind Dir Wind Speed Gust Speed Precip Events Conditions
12:53 AM 23.0 °F 10.6 °F 3.0 °F 42% 29.92 in 10.0 mi North 13.8 mph 21.9 mph N/A   Clear
1:53 AM 23.0 °F 8.3 °F -0.9 °F 35% 29.93 in 10.0 mi NNE 19.6 mph 34.5 mph N/A   Clear
3:53 AM 21.9 °F 6.9 °F -2.0 °F 35% 29.96 in 10.0 mi North 19.6 mph 27.6 mph N/A   Clear
4:53 AM 21.0 °F 6.6 °F -0.0 °F 40% 29.98 in 10.0 mi North 17.3 mph 27.6 mph N/A   Clear
5:53 AM 21.0 °F 8.1 °F 1.0 °F 42% 29.98 in 10.0 mi North 13.8 mph 31.1 mph N/A   Clear
6:53 AM 21.0 °F 8.6 °F 3.0 °F 46% 29.98 in 10.0 mi NNE 12.7 mph 28.8 mph N/A   Clear
7:53 AM 21.0 °F 9.3 °F 1.9 °F 44% 30.00 in 10.0 mi North 11.5 mph 26.5 mph N/A   Clear
8:53 AM 21.0 °F 8.6 °F 1.9 °F 44% 30.01 in 10.0 mi NNE 12.7 mph 20.7 mph N/A   Clear
9:53 AM 21.0 °F 9.3 °F -0.0 °F 40% 30.03 in 10.0 mi NNE 11.5 mph 28.8 mph N/A   Clear
10:53 AM 19.0 °F 6.1 °F 3.0 °F 50% 30.04 in 10.0 mi North 12.7 mph 18.4 mph N/A   Clear
11:53 AM 21.0 °F 9.3 °F 3.9 °F 48% 30.05 in 10.0 mi North 11.5 mph 16.1 mph N/A   Clear
12:53 PM 21.0 °F 9.9 °F 1.0 °F 42% 30.06 in 10.0 mi North 10.4 mph 17.3 mph N/A   Clear
1:53 PM 21.0 °F 9.9 °F -0.0 °F 40% 30.07 in 10.0 mi North 10.4 mph 19.6 mph N/A   Clear
2:53 PM 19.9 °F 12.1 °F 1.9 °F 46% 30.06 in 10.0 mi Variable 5.8 mph - N/A   Clear
3:53 PM 19.9 °F 13.4 °F 1.9 °F 46% 30.08 in 10.0 mi Variable 4.6 mph - N/A   Clear
4:53 PM 19.9 °F 12.1 °F 1.9 °F 46% 30.07 in 10.0 mi Variable 5.8 mph - N/A   Clear
5:53 PM 18.0 °F - 1.0 °F 48% 30.09 in 10.0 mi Calm Calm - N/A   Clear
6:53 PM 17.1 °F - 3.0 °F 54% 30.10 in 10.0 mi Calm Calm - N/A   Clear
7:53 PM 19.9 °F 8.6 °F 1.9 °F 46% 30.09 in 10.0 mi North 10.4 mph 19.6 mph N/A   Clear
8:53 PM 19.9 °F 11.1 °F 1.9 °F 46% 30.09 in 10.0 mi North 6.9 mph - N/A   Clear
9:53 PM 19.9 °F 9.3 °F 1.0 °F 44% 30.08 in 10.0 mi North 9.2 mph - N/A   Clear
10:53 PM 19.0 °F 11.1 °F 1.9 °F 47% 30.09 in 10.0 mi NNE 5.8 mph - N/A   Clear
11:53 PM 16.0 °F - 3.0 °F 57% 30.09 in 10.0 mi Calm Calm - N/A   Clear